(87958) = 2000 TS15

Discovered at Socorro on 2000-10-01 by LINEAR.

Orbit

Orbit type: Main Belt

Note: WebGL enabled browser required.

epoch2023-09-13.0
epoch JD2460200.5
perihelion date2019-02-24.21494
perihelion JD2458538.71494
argument of perihelion (°)341.15201
ascending node (°)21.85127
inclination (°)4.57250
eccentricity0.0826055
perihelion distance (AU)2.5576940
Tisserand w.r.t. Jupiter3.3
ΔV w.r.t. Earth (km/sec)10.1
semimajor axis (AU)2.7879978
mean anomaly (°)351.83582
mean daily motion (°/day)0.21172160
aphelion distance (AU)3.018
period (years)4.66
P-vector [x]0.99824384
P-vector [y]0.05918981
P-vector [z]-0.00240880
Q-vector [x]-0.05127199
Q-vector [y]0.88364634
Q-vector [z]0.46533895
absolute magnitude15.69
phase slope0.15
uncertainty0
referenceMPEC 2024-A34
observations used812
oppositions18
arc length (days)10327
first opposition used1995
last opposition used2023
residual rms (arc-secs)0.72
perturbers coarse indicatorM-v
perturbers precise indicator003Ek
first observation date used1995-08-29.0
last observation date used2023-12-07.0
computer nameMPCLINUX
JD of orbit computation2456966.828516
perihelion JD uncertainty (days)1.3821E-04
argument of perihelion uncertainty (°)5.9157E-05
ascending node uncertainty (°)5.0551E-05
inclination uncertainty (°)6.6128E-06
eccentricity uncertainty 6.5067E-08
perihelion distance uncertainty (AU)1.8000E-07
Minimum Orbit Intersection Distances (in AU)
for orbit epoch: 2460200.5, reference: E2024-A34
Mercury2.18616
Venus1.83173
Earth1.55503
Mars1.146
Jupiter2.38041
Saturn6.24824
Uranus15.4386
Neptune27.2484

Observations

835 total observations over interval: 1995 08 29.23646 – 2023 12 07.098606
These data are available for download (format description).

Date (UT) J2000 RA J2000 Dec Magn Location Ref
1995 08 29.23646 23 32 03.18 -07 58 08.3 19.7 V 809 – European Southern Observatory, La Silla MPS 22584
1995 08 30.22986 23 31 17.73 -08 01 53.9 19.0 V 809 – European Southern Observatory, La Silla MPS 22584
2000 09 22.32892 02 10 23.63 +13 05 41.3 19.0 R 699 – Lowell Observatory-LONEOS MPS 30184
2000 09 22.34906 02 10 22.88 +13 05 40.8   699 – Lowell Observatory-LONEOS MPS 30184
2000 09 22.36920 02 10 22.25 +13 05 40.5   699 – Lowell Observatory-LONEOS MPS 30184
2000 09 22.38932 02 10 21.67 +13 05 40.0   699 – Lowell Observatory-LONEOS MPS 30184
2000 10 01.33847 02 05 01.25 +12 55 22.7 19.2   704 – Lincoln Laboratory ETS, New Mexico MPS 20298
2000 10 01.35355 02 05 00.59 +12 55 21.6 19.4   704 – Lincoln Laboratory ETS, New Mexico MPS 20298
2000 10 01.36863 02 04 59.95 +12 55 20.0 19.6   704 – Lincoln Laboratory ETS, New Mexico MPS 20298
2000 10 01.38371 02 04 59.30 +12 55 19.0 19.8   704 – Lincoln Laboratory ETS, New Mexico MPS 20298
2000 10 01.39879 02 04 58.63 +12 55 17.7 19.7   704 – Lincoln Laboratory ETS, New Mexico MPS 20298
2000 10 02.37989 02 04 17.08 +12 53 36.9 19.3   704 – Lincoln Laboratory ETS, New Mexico MPS 20298
2000 10 02.39484 02 04 16.41 +12 53 35.7 19.6   704 – Lincoln Laboratory ETS, New Mexico MPS 20298
2000 10 02.41032 02 04 15.72 +12 53 33.5 19.3   704 – Lincoln Laboratory ETS, New Mexico MPS 20298
2000 10 02.42524 02 04 15.06 +12 53 32.7 19.7   704 – Lincoln Laboratory ETS, New Mexico MPS 20298
2000 10 06.32536 02 01 19.58 +12 45 57.9 19.2 R 699 – Lowell Observatory-LONEOS MPS 20298
2000 10 06.36729 02 01 17.49 +12 45 52.7   699 – Lowell Observatory-LONEOS MPS 20298
2000 10 06.40920 02 01 15.43 +12 45 47.2   699 – Lowell Observatory-LONEOS MPS 20298
2000 10 06.45116 02 01 13.55 +12 45 42.1   699 – Lowell Observatory-LONEOS MPS 20298
2000 10 07.30564 02 00 33.10 +12 43 51.4 19.2 R 699 – Lowell Observatory-LONEOS MPS 21451
2000 10 07.34755 02 00 30.92 +12 43 46.3   699 – Lowell Observatory-LONEOS MPS 21451
2000 10 07.38950 02 00 28.83 +12 43 40.8   699 – Lowell Observatory-LONEOS MPS 21451
2000 10 07.43152 02 00 26.76 +12 43 35.9   699 – Lowell Observatory-LONEOS MPS 21451
2000 10 07.44285 02 00 26.22 +12 43 32.7 19.4 V 691 – Steward Observatory, Kitt Peak-Spacewatch MPS 20298
2000 10 07.46424 02 00 25.16 +12 43 29.7 19.3 V 691 – Steward Observatory, Kitt Peak-Spacewatch MPS 20298
2000 10 07.48549 02 00 24.10 +12 43 27.1 19.3 V 691 – Steward Observatory, Kitt Peak-Spacewatch MPS 20298
2000 10 31.23224 01 39 33.14 +11 36 21.0 19.9   704 – Lincoln Laboratory ETS, New Mexico MPS 21451
2000 10 31.24623 01 39 32.43 +11 36 17.7 19.9   704 – Lincoln Laboratory ETS, New Mexico MPS 21451
2000 10 31.26018 01 39 31.60 +11 36 14.4 19.8   704 – Lincoln Laboratory ETS, New Mexico MPS 21451
2000 10 31.27443 01 39 30.98 +11 36 13.0 19.3   704 – Lincoln Laboratory ETS, New Mexico MPS 21451
2000 11 02.21506 01 37 53.50 +11 30 31.9 18.8   704 – Lincoln Laboratory ETS, New Mexico MPS 21451
2000 11 02.21796 01 37 53.39 +11 30 32.2 19.3   704 – Lincoln Laboratory ETS, New Mexico MPS 21451
2000 11 02.22906 01 37 52.78 +11 30 29.8 19.2   704 – Lincoln Laboratory ETS, New Mexico MPS 21451
2000 11 02.23411 01 37 52.47 +11 30 29.0 19.4   704 – Lincoln Laboratory ETS, New Mexico MPS 21451
2000 11 02.24262 01 37 52.04 +11 30 27.3 19.6   704 – Lincoln Laboratory ETS, New Mexico MPS 21451
2000 11 02.24809 01 37 51.75 +11 30 26.3 19.3   704 – Lincoln Laboratory ETS, New Mexico MPS 21451
2000 11 02.25615 01 37 51.32 +11 30 24.9 19.3   704 – Lincoln Laboratory ETS, New Mexico MPS 21451
2000 11 02.26203 01 37 51.05 +11 30 24.2 19.5   704 – Lincoln Laboratory ETS, New Mexico MPS 21451
2000 11 02.27025 01 37 50.66 +11 30 22.5 19.2   704 – Lincoln Laboratory ETS, New Mexico MPS 21451
2000 11 02.27795 01 37 50.24 +11 30 21.9 19.1   704 – Lincoln Laboratory ETS, New Mexico MPS 21451
2000 11 24.15321 01 24 20.24 +10 45 44.7 20.1 V 691 – Steward Observatory, Kitt Peak-Spacewatch MPS 22584
2000 11 24.17453 01 24 19.72 +10 45 44.0 20.0 V 691 – Steward Observatory, Kitt Peak-Spacewatch MPS 22584
2000 11 24.19582 01 24 19.23 +10 45 42.4 20.0 V 691 – Steward Observatory, Kitt Peak-Spacewatch MPS 22584
2002 01 06.38512 09 24 50.02 +21 53 51.5 20.0 V 691 – Steward Observatory, Kitt Peak-Spacewatch MPS 46572
2002 01 06.40737 09 24 49.16 +21 53 56.5 20.3 V 691 – Steward Observatory, Kitt Peak-Spacewatch MPS 46572
2002 01 06.42958 09 24 48.32 +21 54 01.7 20.2 V 691 – Steward Observatory, Kitt Peak-Spacewatch MPS 46572
2002 02 04.35870 09 00 22.08 +23 45 12.3 19.9   644 – Palomar Mountain/NEAT MPS 49201
2002 02 04.37991 09 00 20.83 +23 45 15.8 19.9   644 – Palomar Mountain/NEAT MPS 49201
2002 02 04.40112 09 00 19.57 +23 45 19.6 20.0   644 – Palomar Mountain/NEAT MPS 49201
2002 02 06.32834 08 58 29.77 +23 51 10.9 19.8   704 – Lincoln Laboratory ETS, New Mexico MPS 49201
2002 02 06.34334 08 58 28.84 +23 51 12.8 19.7   704 – Lincoln Laboratory ETS, New Mexico MPS 49201
2002 02 06.35833 08 58 28.03 +23 51 15.2 19.6   704 – Lincoln Laboratory ETS, New Mexico MPS 49201
2002 02 08.30995 08 56 37.78 +23 56 47.0 19.2   704 – Lincoln Laboratory ETS, New Mexico MPS 52096
2002 02 08.32430 08 56 36.98 +23 56 49.3 19.5   704 – Lincoln Laboratory ETS, New Mexico MPS 52096
2002 02 08.33865 08 56 36.21 +23 56 50.9 19.9   704 – Lincoln Laboratory ETS, New Mexico MPS 52096
2002 02 08.35300 08 56 35.32 +23 56 53.8 19.6   704 – Lincoln Laboratory ETS, New Mexico MPS 52096
2002 02 12.24958 08 53 00.75 +24 06 42.2 20.0   704 – Lincoln Laboratory ETS, New Mexico MPS 52096
2002 02 12.26441 08 52 59.76 +24 06 42.1 19.5   704 – Lincoln Laboratory ETS, New Mexico MPS 52096
2002 02 12.28029 08 52 58.79 +24 06 45.2 20.0   704 – Lincoln Laboratory ETS, New Mexico MPS 52096
2002 02 12.29509 08 52 58.01 +24 06 45.5 19.8   704 – Lincoln Laboratory ETS, New Mexico MPS 52096
2002 03 12.12283 08 34 55.96 +24 23 27.9 20.6   644 – Palomar Mountain/NEAT MPS 52096
2002 03 12.14376 08 34 55.49 +24 23 27.2 20.5   644 – Palomar Mountain/NEAT MPS 52096
2002 03 12.16455 08 34 55.05 +24 23 25.7 20.8   644 – Palomar Mountain/NEAT MPS 52096
2003 04 24.26943 14 01 34.76 -13 48 16.5 19.2 R 699 – Lowell Observatory-LONEOS MPS 78022
2003 04 24.28687 14 01 33.88 -13 48 14.4   699 – Lowell Observatory-LONEOS MPS 78022
2003 04 24.30430 14 01 32.89 -13 48 10.6   699 – Lowell Observatory-LONEOS MPS 78022
2003 04 24.32166 14 01 32.06 -13 48 05.8   699 – Lowell Observatory-LONEOS MPS 78022
2003 05 25.16722 13 38 46.69 -12 17 58.6 21.2 V 691 – Steward Observatory, Kitt Peak-Spacewatch MPS 79795
2003 05 25.19705 13 38 45.78 -12 17 55.3 20.7 V 691 – Steward Observatory, Kitt Peak-Spacewatch MPS 79795
2003 05 25.22400 13 38 44.94 -12 17 52.1 20.8 V 691 – Steward Observatory, Kitt Peak-Spacewatch MPS 79795
2004 06 27.70076 21 21 51.85 -22 26 46.4 18.5 R E12 – Siding Spring Survey MPS 109808
2004 06 27.71220 21 21 51.71 -22 26 47.8 18.9 R E12 – Siding Spring Survey MPS 109808
2004 06 27.72366 21 21 51.58 -22 26 48.8 17.9 R E12 – Siding Spring Survey MPS 109808
2004 06 27.73508 21 21 51.26 -22 26 52.7 19.4 R E12 – Siding Spring Survey MPS 109808
2004 07 09.38634 21 16 50.90 -23 05 56.2 18.8 R 699 – Lowell Observatory-LONEOS MPS 110697
2004 07 09.39851 21 16 50.57 -23 05 58.8   699 – Lowell Observatory-LONEOS MPS 110697
2004 07 09.41069 21 16 49.87 -23 06 02.4   699 – Lowell Observatory-LONEOS MPS 110697
2004 07 09.42288 21 16 49.57 -23 06 05.6   699 – Lowell Observatory-LONEOS MPS 110697
2004 07 11.28306 21 15 43.32 -23 12 58.2 19.3   704 – Lincoln Laboratory ETS, New Mexico MPS 110261
2004 07 11.29347 21 15 42.92 -23 13 00.5 19.4   704 – Lincoln Laboratory ETS, New Mexico MPS 110261
2004 07 11.30413 21 15 42.48 -23 13 03.1 19.8   704 – Lincoln Laboratory ETS, New Mexico MPS 110261
2004 07 11.31471 21 15 42.06 -23 13 05.7 19.6   704 – Lincoln Laboratory ETS, New Mexico MPS 110261
2004 07 11.32526 21 15 41.68 -23 13 07.9 19.7   704 – Lincoln Laboratory ETS, New Mexico MPS 110261
2004 07 16.34103 21 12 19.15 -23 32 13.6 19.9   704 – Lincoln Laboratory ETS, New Mexico MPS 110261
2004 07 16.36238 21 12 18.11 -23 32 17.1 20.0   704 – Lincoln Laboratory ETS, New Mexico MPS 110261
